Вернуться в каталог

STARLINK-11308

АктивенСвязьVLEO
NORAD 61246·PAYLOAD·🇺🇸 United States

Запущен Sep 25, 2024 с Vandenberg Space Force Base

Loading…

Ближайшие Пролёты (ближайшие 24 часа)

TLE

СвежийSource: CelesTrak SupGP

Эпоха: Sep 14, 2026, 14:51 UTC

1 61246C 24175D   26257.61923611 -.00006137  00000+0 -50573-4 0  2578
2 61246  53.1574 204.8213 0001091  88.6338 185.2320 15.69702716    19

Отслеживайте STARLINK-11308 в реальном времени с AllMySat

Download on the App Store